Simultaneous Nadir Overpasses (SNOs) Predictions

Prediction of SNOs between AQUA and NPP Satellite Orbit:

Table of predicted SNOs for the next 14.0 days since TLE Epoch: 2/25/2023
Index Date (AQUA) Time (AQUA) Lat,Lon (AQUA) SZA (AQUA ) Date (NPP) Time (NPP) Lat,Lon (NPP) SZA (NPP ) Distance(km) Time Diff (sec)
1 02/26/2023 12:23:43 79.49,-108.35 101.40 02/26/2023 12:23:18 79.49,-108.36 101.42 0.40 25
2 02/26/2023 13:13:03 -79.70, 60.82 78.93 02/26/2023 13:13:57 -79.70, 60.74 78.95 1.78 54
3 03/01/2023 02:59:45 79.33, 31.58 100.64 03/01/2023 02:58:46 79.33, 31.48 100.71 2.17 59
4 03/01/2023 03:49:01 -79.70,-158.19 79.91 03/01/2023 03:49:20 -79.70,-158.06 79.95 2.48 19
5 03/03/2023 18:25:02 -79.57, -18.06 80.74 03/03/2023 18:24:48 -79.57, -18.03 80.73 0.52 14
6 03/03/2023 19:14:22 79.74, 150.86 99.00 03/03/2023 19:15:27 79.74, 150.78 98.96 1.56 65
7 03/06/2023 09:01:03 -79.40, 121.78 81.51 03/06/2023 09:00:17 -79.40, 121.71 81.46 1.47 46
8 03/06/2023 09:50:21 79.65, -68.83 98.12 03/06/2023 09:50:54 79.64, -68.98 98.13 3.11 33
9 03/08/2023 23:39:47 -71.29,-123.24 73.26 03/08/2023 23:38:34 -71.64,-125.36 72.88 83.86 73



Historial Predications of SNOs between AQUA and NPP
